Flag for United Kingdom Weather past 2 weeks in Bangor, Wales, United Kingdom

Now
38 °F

Chilly.


Feels Like: 28 °F
Forecast: 38 / 43 °F
Wind: 18 mph from Southwest

Location: Capel Curig

Current Time: Mar 2, 2015 at 1:45:55 AM

Latest Report: Mar 2, 2015 at 1:00 AM


Visibility: 28 mi

Pressure: 29.50 "Hg

Humidity: 75%

Dew point: 30 °F

Location of BangorLocation

Historic Weather in Bangor — Graph

°F

Bangor temperature yesterday

Maximum temperature yesterday: 44 °F (at 12:00 AM)
Minimum temperature yesterday: 36 °F (at 3:00 PM)
Average temperature yesterday: 40 °F

Past Weeks' High & Low Weather Summary

 TemperatureHumidityPressure
High50 °F (Feb 15, 2:00 PM)98% (Feb 15, 7:00 AM)30.67 "Hg (Feb 15, 7:00 AM)
Low33 °F (Feb 15, 8:00 AM)59% (Feb 26, 4:00 PM)29.00 "Hg (Feb 23, 6:00 PM)
Average41 °F83%29.80 "Hg
* Reported Midnight between Feb 14 and Feb 15 — Midnight between Mar 1 and Mar 2, Bangor, Weather by CustomWeather, © 2015

Note: Actual official high and low records may vary slightly from our data, if they occured in-between our weather recording intervals... More about our weather records

Advertising

Bangor weather history for previous 24 hours

 ConditionsComfort  
Time TempWeatherWind HumidityBarometerVisibility
12:00 AM
Mon, Mar 2
39 °FChilly.28 mph68%29.47 "Hg31 mi
11:00 PM
Sun, Mar 1
39 °FChilly.23 mph68%29.47 "Hg25 mi
10:00 PM39 °FChilly.25 mph64%29.47 "Hg22 mi
8:00 PM39 °FChilly.25 mph67%29.44 "Hg22 mi
7:00 PM39 °FChilly.31 mph68%29.41 "Hg19 mi
6:00 PM39 °FChilly.28 mph74%29.38 "Hg22 mi
5:00 PM38 °FChilly.26 mph77%29.35 "Hg19 mi
4:00 PM37 °FChilly.16 mph88%29.29 "Hg31 mi
3:00 PM36 °FSmoke.31 mph92%29.29 "Hg1 mi
2:00 PM36 °FChilly.22 mph94%29.35 "Hg28 mi
1:00 PM38 °FSmoke.28 mph90%29.38 "Hg4 mi
12:00 PM42 °FQuite cool.24 mph73%29.44 "Hg12 mi
11:00 AM41 °FQuite cool.22 mph74%29.44 "Hg14 mi
10:00 AM40 °FQuite cool.26 mph73%29.44 "Hg16 mi
9:00 AM40 °FChilly.31 mph69%29.44 "Hg28 mi
8:00 AM40 °FQuite cool.30 mph69%29.41 "Hg28 mi
7:00 AM40 °FQuite cool.33 mph71%29.41 "Hg28 mi
6:00 AM41 °FQuite cool.37 mph71%29.41 "Hg25 mi
5:00 AM41 °FQuite cool.39 mph72%29.38 "Hg25 mi
4:00 AM42 °FQuite cool.38 mph72%29.35 "Hg18 mi
2:00 AM43 °FQuite cool.38 mph71%29.35 "Hg19 mi
1:00 AM44 °FQuite cool.38 mph68%29.32 "Hg19 mi
Weather by CustomWeather, © 2015

See weather overviewHow to use our weather pages